map of QOW home
QOW - Airport
Location
City:  Owerri, Imo, Nigeria
Name:Sam Mbakwe Airport
Old (Alt.):Imo Start Airport
ICAO:DNIM
IATA:QOW

Details
Type:Airport (Aerodrome, Airfield)
Latitude:525'37"N (5.427056)
Longitude:712'22"E (7.206031)
Datum:WGS 1984
Elevation:373 ft (114 m)
Variation:1.36W (WMM2015 magnetic declination)
0.11 annual change
Runways:1
Longest:8858 × 148 ft (2700 × 45 m), paved

Time
Time Zone:UTC+1
Local Time:

Weather
TAF:DNIM 121545Z 1218/1324 00000KT 6000 NSC
TEMPO 1303/1308 5000 HZ

Related Locations
Nearby:
Farthest:CIS: 12235 mi / 19690 km
Kanton Island (Canton Island, Abariringa Island) [Canton Island Airport], P, KI

Find:

   beyond  
but within

Other Information
Maps:
NOTAMs:
Links:
Sources:

  
  • flag of Nigeria
  

Sectional Chart

Flight Planning
at skyvector.com

Satellite Image

Google Maps Satellite view

 

Copyright © 2004-2018 Karl L. Swartz. All rights reserved.
The Great Circle Mapper name and logo are trademarks of the Great Circle Mapper.
All other trademarks mentioned herein belong to their respective owners.
Please see credits for attibutions and further copyright information.

  Follow gcmap on Facebook Follow gcmap on Twitter Follow gcmap on Google+ GCmap on LinkedIn

hCard Microformat

Geo Microformat